This is the latest recevied weather packets stored in our database for station/object AC5CM. If no packets are shown the sender has not sent any weather packets the latest 10 day(s).
| Time | Temp. | Humidity | Pressure | Rain* | Wind** | Luminosity | Snow |
|---|---|---|---|---|---|---|---|
| 1777148638 | 31.11° C | 70% | 1007.9 hPa | 0 mm | - | - | - |
| 1777148334 | 31.11° C | 69% | 1008.1 hPa | 0 mm | - | - | - |
| 1777148030 | 31.11° C | 71% | 1008.1 hPa | 0 mm | - | - | - |
| 1777147727 | 30.56° C | 71% | 1008 hPa | 0 mm | - | - | - |
| 1777147423 | 31.11° C | 68% | 1008 hPa | 0 mm | - | - | - |
| 1777147118 | 31.11° C | 69% | 1008.1 hPa | 0 mm | - | - | - |
| 1777146814 | 31.67° C | 66% | 1008.3 hPa | 0 mm | - | - | - |
| 1777146511 | 31.67° C | 68% | 1008.4 hPa | 0 mm | - | - | - |
| 1777146207 | 31.67° C | 67% | 1008.5 hPa | 0 mm | - | - | - |
| 1777145903 | 31.11° C | 69% | 1008.4 hPa | 0 mm | - | - | - |
| 1777145600 | 31.67° C | 66% | 1008.5 hPa | 0 mm | - | - | - |
| 1777145300 | 31.11° C | 69% | 1008.5 hPa | 0 mm | - | - | - |
| 1777144995 | 31.11° C | 70% | 1008.7 hPa | 0 mm | - | - | - |
| 1777144695 | 31.11° C | 68% | 1008.6 hPa | 0 mm | - | - | - |
| 1777144389 | 31.67° C | 67% | 1008.6 hPa | 0 mm | - | - | - |
| 1777144086 | 31.67° C | 69% | 1008.8 hPa | 0 mm | - | - | - |
| 1777143782 | 31.67° C | 67% | 1008.7 hPa | 0 mm | - | - | - |
| 1777143480 | 31.67° C | 68% | 1008.8 hPa | 0 mm | - | - | - |
| 1777143175 | 31.67° C | 69% | 1008.9 hPa | 0 mm | - | - | - |
| 1777142871 | 32.22° C | 64% | 1009 hPa | 0 mm | - | - | - |
| 1777142568 | 32.22° C | 67% | 1009 hPa | 0 mm | - | - | - |
| 1777142266 | 31.67° C | 67% | 1008.8 hPa | 0 mm | - | - | - |
| 1777141964 | 32.22° C | 69% | 1009 hPa | 0 mm | - | - | - |
| 1777141661 | 32.22° C | 69% | 1008.9 hPa | 0 mm | - | - | - |
| 1777141359 | 32.22° C | 64% | 1009.1 hPa | 0 mm | - | - | - |
* Rain latest hour (hover to see other rain measurements)
** Current wind speed in m/s (hover to see current wind gust speed)